Overview Statistics Trail Chart Weather Telemetry Raw packets
 

This is the latest recevied weather packets stored in our database for station/object SV9TNF-52. If no packets are shown the sender has not sent any weather packets the latest 10 day(s).

<< 16 17 18 19 20 21 22 >>
Time Temp. Humidity Pressure Rain* Wind** Luminosity Snow
1788543589 27.78° C 57% 1020.3 hPa 0 mm 1.79 m/s, 70° - -
1788543288 27.22° C 55% 1020.3 hPa 0 mm 2.68 m/s, 76° - -
1788542988 27.22° C 52% 1020.3 hPa 0 mm 5.36 m/s, 85° - -
1788542688 27.22° C 54% 1020.3 hPa 0 mm 3.13 m/s, 109° - -
1788542388 27.22° C 53% 1020 hPa 0 mm 3.13 m/s, 115° - -
1788542088 27.78° C 53% 1020 hPa 0 mm 4.47 m/s, 69° - -
1788541788 27.22° C 52% 1020 hPa 0 mm 5.81 m/s, 90° - -
1788541488 27.78° C 52% 1020 hPa 0 mm 3.58 m/s, 68° - -
1788541188 27.78° C 53% 1020 hPa 0 mm 3.13 m/s, 94° - -
1788540888 27.22° C 53% 1020 hPa 0 mm 3.58 m/s, 78° - -
1788540587 27.78° C 54% 1020 hPa 0 mm 4.02 m/s, 62° - -
1788540287 27.78° C 55% 1020 hPa 0 mm 2.68 m/s, 99° - -
1788539988 27.78° C 55% 1020 hPa 0 mm 2.68 m/s, 64° - -
1788539687 27.78° C 52% 1020 hPa 0 mm 1.79 m/s, 309° - -
1788539387 27.78° C 53% 1020 hPa 0 mm 3.58 m/s, 45° - -
1788539087 27.78° C 52% 1020 hPa 0 mm 2.68 m/s, 21° - -
1788538787 28.33° C 52% 1020 hPa 0 mm 3.58 m/s, 131° - -
1788538487 28.33° C 52% 1020 hPa 0 mm 4.47 m/s, 86° - -
1788538187 28.33° C 53% 1020 hPa 0 mm 3.13 m/s, 95° - -
1788537886 28.33° C 52% 1020 hPa 0 mm 5.81 m/s, 71° - -
1788537586 28.89° C 51% 1020 hPa 0 mm 5.81 m/s, 67° - -
1788537286 28.33° C 49% 1020 hPa 0 mm 6.26 m/s, 47° - -
1788536986 28.89° C 49% 1020 hPa 0 mm 3.13 m/s, 56° - -
1788536686 28.89° C 48% 1020 hPa 0 mm 4.02 m/s, 83° - -
1788536386 29.44° C 50% 1020 hPa 0 mm 1.34 m/s, 3° - -

* Rain latest hour (hover to see other rain measurements)
** Current wind speed in m/s (hover to see current wind gust speed)